CAPE
0 0 0 2 0 0 0 0 0 0 0 0 0 0 0 0 0 0 0 0 0 0 0 0 0 0 0 8 65 265 236 52 77 49 83 369 371 644 441 241 485 297 113 239 109
1 1 1 0 0 0 0 0 0 0 0 0 0 0 0 0 0 0 0 0 0 0 0 0 0 0 21 19 14 253 22 60 110 104 80 165 384 461 514 382 443 362 246 182 83
1 1 0 0 0 0 0 0 0 0 0 0 0 0 0 0 0 0 0 0 0 0 0 0 0 0 54 20 26 97 78 134 151 313 354 218 147 289 360 444 394 388 210 181 60
1 1 1 1 1 0 0 0 0 0 0 0 0 0 0 0 0 0 0 0 0 0 0 0 0 47 93 5 17 65 88 242 429 441 468 388 249 246 755 395 342 458 258 190 74
1 1 1 2 1 0 0 0 0 0 0 0 0 0 0 0 0 0 0 0 0 0 0 0 4 46 37 75 40 101 143 336 444 515 543 596 352 193 526 477 408 456 219 142 64
0 1 0 1 0 0 0 0 0 0 0 0 0 0 0 0 0 0 0 0 0 0 0 0 0 0 19 37 6 79 223 366 518 542 654 683 700 422 535 446 269 338 306 198 63
0 0 0 1 0 0 0 0 0 0 0 0 0 0 0 0 0 0 0 0 0 0 0 0 0 0 49 48 29 51 158 317 459 520 513 168 735 89 537 456 275 271 288 362 287
0 0 0 0 0 0 0 0 0 0 0 0 0 0 0 0 0 0 0 0 0 0 0 0 0 0 2 59 28 60 165 74 424 559 187 7 676 436 652 584 355 345 319 333 401
0 0 0 0 0 0 0 0 0 0 0 0 0 0 0 0 0 0 0 0 0 0 0 0 0 2 26 12 115 87 0 2 336 375 414 332 732 622 631 811 542 366 379 380 586
0 0 0 0 0 0 0 0 0 0 0 0 0 0 0 0 0 0 0 0 0 0 0 0 0 17 28 94 119 206 0 70 102 479 405 518 493 844 688 726 842 499 439 408 499
0 0 0 0 0 0 0 0 0 0 0 0 0 0 0 0 0 0 0 0 0 0 0 0 33 55 2 6 61 0 45 87 56 54 131 345 288 886 912 683 685 704 577 515 484
0 0 0 0 0 0 0 0 0 0 0 0 0 0 0 0 0 0 0 0 0 0 7 52 41 32 81 42 21 49 71 72 79 11 32 155 155 234 1007 893 669 610 596 614 548
0 0 0 0 0 0 0 0 0 0 0 0 0 0 0 0 0 0 0 0 0 0 34 44 36 49 126 46 18 79 125 5 3 65 2 85 122 125 505 1018 937 741 575 456 397
0 0 0 0 0 0 0 0 0 0 0 0 0 0 0 0 0 0 0 0 0 0 37 32 6 69 42 49 73 41 7 49 42 43 0 0 3 0 419 871 993 983 847 573 427
0 0 0 0 0 0 0 0 0 0 0 0 0 0 0 0 0 0 0 0 0 0 19 26 22 93 147 84 74 0 0 21 34 25 45 99 3 181 10 373 898 1071 1042 939 602
0 0 0 0 0 0 0 0 0 0 0 0 0 0 0 0 0 0 0 0 0 0 0 15 66 95 60 139 46 9 0 0 4 36 98 63 14 29 0 30 340 623 920 1001 959
0 0 0 0 0 0 0 0 0 0 0 0 0 0 0 0 0 0 0 0 0 0 0 0 0 13 49 89 79 15 26 62 29 68 22 28 5 9 174 299 519 671 839 937 1129
0 0 0 0 0 0 0 0 0 0 0 0 0 0 0 0 0 0 0 0 0 0 0 0 0 17 16 27 51 85 48 46 88 110 0 71 50 135 239 660 986 1031 1002 953 1127
0 0 0 0 0 0 0 0 0 0 0 0 0 0 0 0 0 0 0 0 0 0 0 0 0 22 21 21 1 47 27 9 10 0 80 7 11 105 463 749 1004 1206 1321 1394 1254
0 0 0 0 0 0 0 0 0 0 0 0 0 0 0 0 0 0 0 0 0 0 0 0 1 8 15 11 31 11 26 3 38 95 52 36 38 47 315 810 986 1082 1194 1632 1889
0 0 0 0 0 0 0 0 0 0 0 0 0 0 0 0 0 0 0 0 0 0 0 0 9 27 19 44 21 0 0 0 16 19 53 65 8 0 374 942 1099 1191 1210 1529 1727
0 9 0 0 0 0 0 0 0 0 0 0 0 0 0 0 0 0 0 0 0 0 0 0 1 14 23 1 0 42 12 0 33 26 4 37 77 493 648 1010 1213 1299 1331 1475 1672
169 35 0 0 0 0 0 0 0 0 0 0 0 0 0 0 0 0 0 0 0 0 0 0 0 6 24 10 65 60 98 33 20 33 50 36 230 179 718 1298 1532 1503 1542 1598 1676
196 4 0 0 0 0 0 0 0 0 0 0 0 0 0 0 0 0 0 0 0 0 0 0 0 0 25 52 44 1 0 29 32 45 65 14 0 126 936 1368 1536 1547 1589 1682 1781
363 492 163 0 0 0 0 0 0 0 0 0 0 0 0 0 0 0 0 0 0 0 0 0 0 0 0 9 12 6 26 26 18 27 25 0 0 221 1217 1349 1468 1442 1534 1613 1713
266 651 609 41 13 0 0 0 0 0 0 0 0 0 0 1 39 2 0 0 0 0 0 0 0 2 1 12 2 0 0 0 52 37 38 7 25 193 936 1369 1365 1350 1250 1359 1412
0 16 236 492 165 47 24 38 69 32 3 0 3 0 86 21 107 135 126 41 8 9 0 0 0 0 14 31 30 12 4 35 56 69 78 82 433 394 759 1130 1121 1134 1017 1483 1383
CIN
-0 -0 -0 -0 -0 -0 -0 -0 -0 -0 -0 -0 -0 -0 -0 -0 -0 -0 -0 -0 -0 -0 -0 -0 -11 -7 -0 -2 -57 -5 -6 -10 -9 -4 -9 -3 -3 -2 -4 -3 -3 -15 -104 -43 -75
-0 -0 -0 -0 -0 -0 -0 -0 -0 -0 -0 -0 -0 -0 -0 -0 -0 -0 -0 -0 -0 -0 -0 -0 -0 -0 -8 -4 -9 -5 -21 -1 -21 -26 -6 -3 -2 -2 -4 -2 -1 -3 -24 -56 -83
-0 -0 -0 -0 -0 -0 -0 -0 -0 -0 -0 -0 -0 -0 -0 -0 -0 -0 -0 -0 -0 -0 -0 -0 -0 -0 -6 -6 -6 -2 -3 -7 -13 -1 -3 -1 -2 -5 -3 -5 -1 -13 -59 -58 -76
-0 -0 -0 -0 -0 -0 -0 -0 -0 -0 -0 -0 -0 -0 -0 -0 -0 -0 -0 -0 -0 -0 -0 -0 -0 -5 -5 -7 -2 -16 -2 -3 -2 -2 -3 -2 -4 -4 -2 -2 -3 -3 -46 -58 -81
-0 -0 -0 -0 -0 -0 -0 -0 -0 -0 -0 -0 -0 -0 -0 -0 -0 -0 -0 -0 -0 -0 -0 -0 -3 -4 -41 -4 -3 -6 -4 -2 -1 -3 -4 -5 -5 -1 -10 -12 -3 -7 -32 -55 -59
-0 -0 -0 -0 -0 -0 -0 -0 -0 -0 -0 -0 -0 -0 -0 -0 -0 -0 -0 -0 -0 -0 -0 -0 -0 -0 -7 -3 -56 -2 -3 -2 -2 -3 -2 -2 -2 -2 -4 -7 -17 -19 -16 -28 -46
-0 -0 -0 -0 -0 -0 -0 -0 -0 -0 -0 -0 -0 -0 -0 -0 -0 -0 -0 -0 -0 -0 -0 -0 -0 -0 -5 -2 -3 -12 -2 -4 -3 -2 -8 -87 -3 -58 -32 -16 -39 -26 -16 -9 -11
-0 -0 -0 -0 -0 -0 -0 -0 -0 -0 -0 -0 -0 -0 -0 -0 -0 -0 -0 -0 -0 -0 -0 -0 -0 -0 -5 -15 -22 -6 -3 -43 -3 -5 -115 -22 -15 -47 -44 -22 -23 -14 -13 -12 -4
-0 -0 -0 -0 -0 -0 -0 -0 -0 -0 -0 -0 -0 -0 -0 -0 -0 -0 -0 -0 -0 -0 -0 -0 -0 -13 -4 -9 -4 -4 -0 -125 -1 -7 -3 -45 -10 -43 -45 -12 -14 -24 -23 -17 -4
-0 -0 -0 -0 -0 -0 -0 -0 -0 -0 -0 -0 -0 -0 -0 -0 -0 -0 -0 -0 -0 -0 -0 -0 -0 -8 -7 -21 -24 -6 -0 -13 -4 -6 -7 -4 -3 -39 -48 -21 -18 -44 -40 -41 -17
-0 -0 -0 -0 -0 -0 -0 -0 -0 -0 -0 -0 -0 -0 -0 -0 -0 -0 -0 -0 -0 -0 -0 -0 -7 -7 -3 -93 -10 -0 -31 -4 -21 -16 -5 -2 -4 -8 -35 -37 -35 -37 -29 -51 -44
-0 -0 -0 -0 -0 -0 -0 -0 -0 -0 -0 -0 -0 -0 -0 -0 -0 -0 -0 -0 -0 -0 -3 -7 -6 -11 -12 -11 -4 -7 -8 -13 -12 -39 -40 -14 -20 -7 -19 -32 -28 -37 -24 -41 -45
-0 -0 -0 -0 -0 -0 -0 -0 -0 -0 -0 -0 -0 -0 -0 -0 -0 -0 -0 -0 -0 -0 -8 -13 -5 -20 -4 -5 -11 -4 -11 -15 -36 -21 -2 -50 -46 -21 -3 -21 -16 -33 -58 -56 -58
-0 -0 -0 -0 -0 -0 -0 -0 -0 -0 -0 -0 -0 -0 -0 -0 -0 -0 -0 -0 -0 -0 -5 -7 -20 -11 -7 -2 -9 -18 -40 -8 -7 -4 -0 -15 -16 -0 -3 -10 -31 -18 -37 -54 -61
-0 -0 -0 -0 -0 -0 -0 -0 -0 -0 -0 -0 -0 -0 -0 -0 -0 -0 -0 -0 -0 -0 -4 -4 -14 -16 -3 -10 -19 -126 -0 -29 -13 -19 -60 -48 -70 -21 -7 -8 -12 -14 -15 -30 -34
-0 -0 -0 -0 -0 -0 -0 -0 -0 -0 -0 -0 -0 -0 -0 -0 -0 -0 -0 -0 -0 -0 -0 -7 -4 -6 -7 -8 -49 -9 -0 -0 -7 -7 -15 -36 -45 -27 -0 -3 -12 -8 -7 -20 -27
-0 -0 -0 -0 -0 -0 -0 -0 -0 -0 -0 -0 -0 -0 -0 -0 -0 -0 -0 -0 -0 -0 -0 -0 -2 -18 -7 -14 -18 -28 -9 -10 -26 -7 -51 -11 -14 -52 -32 -14 -15 -22 -13 -13 -9
-0 -0 -0 -0 -0 -0 -0 -0 -0 -0 -0 -0 -0 -0 -0 -0 -0 -0 -0 -0 -0 -0 -0 -0 -0 -4 -9 -8 -6 -10 -4 -13 -15 -21 -0 -29 -5 -28 -25 -30 -21 -25 -29 -37 -8
-0 -0 -0 -0 -0 -0 -0 -0 -0 -0 -0 -0 -0 -0 -0 -0 -0 -0 -0 -0 -0 -0 -0 -0 -0 -10 -5 -5 -2 -31 -13 -7 -16 -0 -34 -76 -37 -1 -19 -26 -25 -32 -45 -47 -33
-0 -0 -0 -0 -0 -0 -0 -0 -0 -0 -0 -0 -0 -0 -0 -0 -0 -0 -0 -0 -0 -0 -0 -0 -3 -5 -13 -5 -6 -12 -54 -18 -11 -3 -16 -25 -32 -2 -6 -11 -30 -37 -42 -64 -90
-0 -0 -0 -0 -0 -0 -0 -0 -0 -0 -0 -0 -0 -0 -0 -0 -0 -0 -0 -0 -0 -0 -0 -0 -5 -7 -5 -6 -5 -0 -0 -0 -43 -32 -35 -21 -58 -0 -1 -14 -24 -28 -58 -83 -85
-1 -3 -0 -0 -0 -0 -0 -0 -0 -0 -0 -0 -0 -0 -0 -0 -0 -0 -0 -0 -0 -0 -0 -0 -2 -11 -9 -4 -0 -10 -10 -0 -9 -6 -23 -8 -22 -6 -29 -15 -33 -53 -79 -94 -111
-80 -8 -0 -0 -0 -0 -0 -0 -0 -0 -0 -0 -0 -0 -0 -0 -0 -0 -0 -0 -0 -0 -0 -0 -0 -6 -9 -9 -6 -4 -4 -7 -13 -9 -9 -55 -4 -23 -37 -57 -61 -97 -124 -138 -139
-92 -8 -0 -0 -0 -0 -0 -0 -0 -0 -0 -0 -0 -0 -0 -0 -0 -0 -0 -0 -0 -0 -0 -0 -0 -0 -15 -4 -9 -5 -1 -12 -7 -10 -9 -117 -0 -34 -33 -55 -96 -125 -137 -145 -147
-48 -5 -14 -0 -0 -0 -0 -0 -0 -0 -0 -0 -0 -0 -0 -0 -0 -0 -0 -0 -0 -0 -0 -0 -0 -0 -12 -20 -7 -57 -12 -8 -4 -8 -16 -6 -0 -90 -21 -54 -90 -119 -123 -124 -128
-54 -2 -1 -66 -40 -0 -0 -0 -0 -0 -0 -0 -0 -0 -0 -0 -3 -5 -0 -0 -0 -0 -0 -0 -0 -6 -11 -9 -5 -0 -4 -0 -8 -2 -5 -17 -16 -10 -10 -46 -84 -90 -105 -107 -119
-0 -99 -81 -5 -7 -25 -9 -28 -6 -6 -22 -0 -1 -0 -3 -22 -4 -5 -6 -7 -5 -5 -0 -0 -0 -0 -9 -6 -6 -7 -7 -7 -4 -12 -4 -7 -7 -30 -35 -44 -61 -71 -94 -75 -82
Wind_Speed
19 20 20 21 21 22 22 22 22 22 22 22 23 23 23 23 23 8 21 15 13 19 18 16 14 13 15 16 16 17 19 23 24 24 18 17 17 16 15 17 14 11 22 23 25
20 21 21 22 22 23 23 23 23 23 23 24 23 23 23 23 23 24 15 18 20 21 19 16 18 17 13 14 6 10 17 22 22 23 20 18 17 16 14 16 17 17 20 24 27
21 22 22 23 23 24 24 24 24 24 24 24 24 24 23 22 23 12 11 13 18 22 20 19 17 17 16 18 13 15 18 18 21 21 22 20 19 17 15 13 16 18 21 24 25
22 22 23 23 24 25 25 25 25 25 25 24 24 23 23 21 10 10 10 14 22 22 21 20 18 20 10 10 12 14 15 17 18 21 22 22 20 18 16 13 14 17 21 23 25
23 23 23 24 24 25 26 26 26 26 25 24 24 23 20 8 12 9 19 24 23 23 22 19 19 18 15 11 12 14 14 15 18 20 21 22 21 19 19 14 15 18 20 22 23
23 24 24 24 25 26 26 26 27 26 25 25 24 23 19 26 14 8 23 24 24 23 22 20 17 18 18 18 12 11 12 14 18 19 19 20 21 20 19 20 18 20 21 21 23
24 24 24 25 25 26 26 27 27 27 26 25 23 21 25 25 16 17 25 26 23 23 22 18 19 21 20 16 15 9 13 13 16 17 16 19 14 20 22 21 21 22 22 20 22
25 25 25 25 26 26 26 27 27 27 25 24 22 21 26 18 25 28 27 28 29 27 25 23 21 23 23 6 13 6 19 12 5 15 16 20 21 22 22 22 21 21 22 22 22
25 25 25 26 26 26 27 26 25 23 19 17 18 16 26 13 7 24 24 28 29 27 25 23 23 25 22 24 21 6 16 20 14 15 11 11 22 20 20 20 20 20 21 22 22
25 25 26 26 26 26 26 24 19 17 15 16 23 22 14 4 2 5 16 28 28 29 19 25 26 24 25 20 13 19 15 5 14 13 13 8 17 18 17 18 18 19 19 21 21
26 26 26 26 26 25 22 16 17 18 13 20 18 13 12 12 13 18 16 22 30 29 20 23 25 24 15 15 18 18 26 9 13 14 13 13 15 15 15 16 16 16 17 19 19
26 26 26 26 26 25 20 18 19 19 22 7 30 21 17 15 10 9 13 20 18 18 22 22 23 23 10 14 22 20 17 15 18 14 13 13 11 14 15 14 15 15 15 16 19
26 26 26 26 26 21 19 21 19 21 22 19 14 17 11 5 16 8 13 26 18 18 25 24 12 9 18 20 22 20 13 13 23 13 12 16 20 19 12 15 15 14 14 16 17
26 26 26 25 20 17 19 16 18 19 21 9 13 20 8 6 11 28 14 28 30 20 26 28 18 27 22 27 26 19 27 19 18 18 18 23 13 16 12 10 11 14 14 15 15
27 26 25 22 22 18 15 15 19 15 19 6 6 10 5 7 9 6 16 30 29 20 24 28 11 28 13 31 24 14 11 23 24 26 9 10 13 12 12 12 10 10 14 16 15
28 27 25 20 20 22 17 17 14 17 20 12 10 9 5 12 4 2 5 36 27 28 27 32 24 11 34 31 5 22 23 22 24 19 22 9 6 18 9 17 15 10 11 14 14
29 28 25 22 16 16 17 15 16 21 13 13 13 5 5 6 7 7 6 17 21 22 22 22 27 31 18 23 28 28 29 28 25 22 21 10 18 13 11 15 15 14 11 9 12
29 25 19 23 19 20 18 18 23 17 15 13 14 9 9 6 7 8 9 9 27 26 12 16 16 24 13 34 25 24 32 29 20 23 17 23 16 10 12 13 14 14 13 12 6
25 17 19 18 22 19 19 21 20 20 17 17 12 15 13 7 12 14 17 7 15 29 24 14 18 16 17 9 36 31 32 19 9 19 32 8 21 14 11 12 12 14 14 14 11
20 18 13 13 12 19 23 30 22 20 18 20 19 17 13 12 14 15 16 26 23 18 32 25 10 17 19 16 34 35 28 27 25 21 24 21 20 18 3 11 12 13 13 13 12
19 18 13 12 13 22 26 27 23 18 20 20 21 17 24 14 14 18 27 21 25 5 27 32 7 9 5 13 14 12 34 31 16 17 22 30 31 15 9 7 11 11 11 11 11
22 21 12 8 17 26 29 30 18 22 19 22 22 24 23 17 15 30 22 27 11 10 13 25 8 5 11 6 27 35 33 33 32 26 25 28 10 10 12 10 10 11 11 11 11
19 14 13 19 22 27 30 28 24 25 23 22 23 23 23 20 19 24 22 20 13 23 8 10 23 4 3 11 13 25 34 34 31 31 22 11 16 8 9 10 8 8 9 10 10
20 15 13 23 32 28 27 26 29 25 30 25 25 22 21 25 19 19 22 12 13 12 22 12 33 32 8 7 9 9 26 32 32 31 26 24 32 26 8 8 8 8 8 8 10
21 21 15 17 29 30 29 23 27 27 23 24 28 28 24 23 23 21 21 15 14 18 18 17 36 34 29 13 12 10 29 22 19 31 28 8 12 12 6 6 7 7 8 8 9
21 20 19 27 20 24 22 28 29 27 28 25 29 25 28 28 26 19 20 20 13 14 19 16 37 37 37 21 17 27 22 26 13 27 28 28 30 12 10 9 6 6 7 8 9
19 23 22 23 28 22 26 24 26 25 29 30 26 30 25 29 29 26 25 27 21 17 18 37 37 36 39 34 21 21 32 17 16 19 22 26 19 16 11 8 5 6 7 7 9
Wind_Direction
298 290 287 283 281 280 279 276 274 273 275 273 275 276 273 270 264 238 220 295 283 192 207 204 160 148 140 100 139 108 29 19 21 27 40 80 49 5 24 58 341 266 90 106 114
299 294 287 283 282 281 280 278 276 276 276 278 278 277 273 271 255 223 308 275 228 188 190 214 275 265 137 45 299 243 12 19 1 18 36 60 48 56 45 46 30 49 78 109 123
302 296 292 286 282 281 281 280 279 279 278 278 278 276 273 265 239 284 323 289 244 189 208 229 237 216 229 177 345 333 11 15 15 17 45 47 52 88 61 30 64 87 103 119 125
302 299 294 290 285 281 280 280 279 279 277 276 276 273 269 245 326 343 317 269 216 210 218 216 224 218 343 76 29 24 360 5 32 48 54 41 67 54 28 14 44 85 108 121 129
302 299 296 290 286 283 279 279 278 276 275 275 276 280 280 147 193 36 233 199 206 207 213 246 241 239 191 311 61 341 13 16 52 63 51 60 37 65 37 43 57 88 105 120 131
300 299 297 292 287 283 281 278 275 274 273 272 276 279 288 217 303 353 224 221 214 221 225 233 274 259 249 242 37 346 4 54 87 70 55 34 52 79 53 85 77 97 108 119 134
297 296 296 294 289 284 281 276 272 270 269 270 276 293 252 196 293 272 201 205 230 231 234 258 256 236 242 268 268 354 80 60 72 74 28 3 93 31 79 85 90 107 116 116 130
295 294 293 293 291 286 280 275 268 266 268 271 280 288 252 291 254 224 201 205 215 226 234 246 248 237 233 13 268 88 185 338 44 59 55 74 68 73 88 93 95 106 116 121 130
294 293 290 291 288 286 280 273 268 275 284 290 292 297 246 312 288 175 178 193 202 225 232 242 237 222 229 188 208 357 286 232 64 42 7 112 51 74 90 95 97 105 114 132 141
294 292 289 288 289 286 278 272 287 291 297 293 274 279 288 90 59 294 151 191 205 209 186 201 207 187 195 240 289 250 121 16 327 9 346 342 41 81 92 98 101 109 115 133 144
294 291 288 286 286 286 280 296 290 288 282 267 293 276 314 306 297 166 152 161 197 202 167 170 189 186 288 310 244 180 232 23 15 22 9 112 98 93 104 111 102 108 116 130 141
293 290 287 284 281 278 276 274 297 287 278 225 257 272 291 301 299 149 149 160 159 163 170 174 186 258 268 289 260 278 295 309 315 10 160 163 112 99 113 122 118 115 116 129 145
292 289 286 283 278 278 274 274 290 286 279 281 276 271 283 298 281 155 160 169 163 169 180 181 191 276 263 272 261 271 324 332 228 158 134 246 270 234 109 124 129 120 128 139 142
293 288 284 282 282 286 278 285 281 286 282 285 283 275 269 286 268 239 162 176 186 176 185 189 258 227 259 248 243 288 264 290 298 307 345 224 341 208 126 107 116 143 141 146 143
292 286 281 279 272 272 292 287 276 282 286 294 303 304 264 179 343 179 262 179 185 175 182 190 177 201 284 228 260 318 292 285 275 268 89 48 337 97 114 122 90 131 151 158 150
289 282 278 275 269 259 275 276 275 271 282 292 297 283 248 173 235 289 223 198 197 192 189 209 234 166 235 239 343 289 277 270 226 236 281 351 118 18 236 326 27 61 129 151 151
286 274 268 266 273 271 265 265 267 263 293 290 285 274 232 203 189 272 235 170 173 177 183 184 194 219 267 262 265 255 241 258 276 275 296 338 309 347 359 24 24 34 53 112 141
283 271 273 253 264 256 257 257 260 273 284 290 283 279 260 202 198 259 250 177 182 181 169 179 185 187 174 217 234 260 243 261 288 286 299 251 318 42 43 30 25 23 20 12 95
278 282 265 267 249 251 250 254 261 276 279 279 281 269 263 238 258 261 255 223 174 186 185 182 188 180 184 175 220 233 225 230 280 205 255 12 303 331 38 33 26 10 2 356 2
273 272 280 270 256 249 250 246 274 271 279 270 265 265 262 251 252 254 257 255 194 176 197 194 214 183 183 237 238 237 254 265 269 292 301 303 313 296 12 43 17 1 357 359 0
261 265 283 267 254 248 248 250 267 272 267 265 266 273 261 261 253 258 252 267 252 219 182 204 188 164 164 174 176 254 240 246 204 300 294 275 263 188 25 18 24 6 12 21 26
254 259 280 260 251 246 247 248 277 263 265 264 267 264 263 266 255 248 264 257 278 250 170 181 303 165 163 170 186 224 233 239 262 278 297 290 342 357 12 12 12 20 33 33 33
257 289 278 246 251 248 247 257 260 254 259 263 261 262 262 264 261 258 268 266 277 248 181 165 253 189 124 151 267 251 218 244 250 257 294 316 323 350 351 1 25 19 26 29 19
259 275 286 253 240 257 256 256 252 258 251 260 259 266 263 256 265 272 264 277 274 260 255 184 205 217 153 146 152 169 196 230 243 252 268 302 291 273 353 26 33 22 17 26 22
257 262 283 268 248 250 255 261 253 253 259 258 252 253 256 258 260 265 266 274 273 262 261 219 230 211 243 289 283 283 223 272 284 254 271 353 174 177 50 47 35 50 45 40 41
268 274 278 247 269 258 261 256 256 255 253 255 250 255 251 253 257 267 265 265 270 265 258 241 231 219 225 265 278 260 280 261 302 271 279 292 295 353 6 16 26 56 42 39 42
291 268 272 264 248 263 256 262 261 262 254 250 258 249 259 253 258 266 269 255 261 266 262 209 230 235 233 235 278 269 241 272 294 292 299 291 321 337 353 11 48 72 59 44 50